Vertical_Velocity
2 -1 -2 3 1 1 0 -2 -2 -1 -1 -1 -1 -1 -1 -1 -1 -0 0 1 -0 -1 -0 0 -1 -1 -1 -0 -0 0 -0 -1 -0
6 5 -1 -2 -3 4 4 2 1 -0 -2 -2 -2 -1 -0 -0 -0 -2 -2 -0 0 0 1 -0 -0 0 -0 0 0 -0 0 0 -0
1 2 3 3 1 -1 1 2 3 0 0 0 -2 -1 -1 0 -0 -0 0 -2 -2 -2 -2 -1 -0 -1 -0 -1 -1 -1 -0 -0 -0
2 2 -1 1 4 5 2 1 0 -1 -0 -1 1 1 -1 -2 1 -0 -1 -3 -2 -2 -1 -2 -2 -0 0 1 -0 -0 -1 -1 -1
-1 -1 -1 1 1 -1 5 6 4 5 -1 -0 -2 1 3 2 -2 -1 1 0 0 -2 -2 -2 -2 -3 -2 -1 -0 -0 1 1 0
1 -1 -1 -2 0 2 2 1 4 5 3 2 0 -0 -3 -0 3 -0 -3 -2 -2 -1 1 -1 -1 -2 -3 -3 -2 -2 -2 -0 -0
-1 -1 -2 -1 1 -2 1 4 2 3 3 -3 3 1 -2 -0 -1 3 0 -1 -0 1 -0 1 -1 -0 -1 -1 -2 -2 -2 -3 -2
-4 1 4 -1 1 -1 -2 -1 -1 2 1 1 4 -1 1 1 -1 -0 -1 0 1 1 0 -1 1 0 0 1 1 -1 -1 -1 -1
-0 -2 -1 8 0 -1 5 -2 -1 0 2 2 -1 1 -0 -1 1 2 -1 -2 0 0 1 2 -0 1 2 -1 1 -0 -2 -3 -1
-0 1 -0 -2 -2 4 4 2 1 -1 1 2 4 -1 -1 -1 1 -2 -2 1 -1 -1 -2 -1 -0 1 1 0 3 2 2 1 0
2 -2 -2 1 2 1 4 3 3 2 3 -0 -2 -1 2 -1 -2 -1 0 1 1 1 0 -1 -0 0 1 2 -0 0 2 0 -1
2 -1 1 -1 -1 -1 7 -1 4 3 -2 -1 2 3 1 2 -2 -2 -4 -0 0 1 1 1 1 -0 1 1 1 -0 0 1 -0
0 2 -3 -1 1 -2 2 5 2 3 3 4 -0 -2 5 3 3 1 -1 -2 -1 -1 -0 -0 1 2 0 2 2 1 2 2 2
6 4 2 1 -2 1 0 -2 7 18 -4 5 -1 5 1 2 -4 -1 3 1 -3 0 0 0 -2 -0 -1 -2 -2 -2 -1 0 2
5 0 -2 4 3 -2 2 -1 0 8 -6 25 -4 -2 12 16 15 12 10 4 1 -3 0 0 0 -0 -0 -1 0 2 2 1 -0
-2 0 2 -2 -1 2 -1 4 -1 3 -4 -9 21 -3 3 41 23 2 4 -3 4 -6 1 1 1 2 -0 1 2 2 2 2 3
-1 1 2 3 5 -0 -0 0 1 2 4 -14 10 10 3 7 12 3 6 9 1 2 3 2 2 1 1 0 -1 2 4 2 2
-0 -4 2 -2 1 4 3 3 3 4 -4 6 -7 4 4 -1 12 -8 14 16 4 6 2 1 -1 -1 1 -0 1 -2 -1 2 1
-1 -0 -1 -0 3 3 5 4 3 4 8 -13 19 -10 -8 -1 -1 -7 13 9 -1 1 2 -1 10 -3 3 2 -11 -1 0 -0 -0
1 -0 -6 8 8 5 3 3 3 -1 -1 4 1 4 -14 2 -6 -11 -19 -15 14 4 3 -14 -9 -6 -0 0 -3 2 -1 -0 0
Height
1536 1536 1536 1536 1536 1535 1535 1535 1536 1536 1536 1536 1536 1536 1537 1537 1537 1537 1537 1537 1536 1536 1536 1536 1536 1535 1535 1535 1535 1535 1535 1534 1534
1534 1533 1533 1533 1533 1533 1534 1533 1533 1534 1534 1534 1534 1535 1535 1536 1536 1536 1536 1536 1535 1535 1535 1535 1535 1535 1535 1535 1535 1535 1535 1535 1534
1530 1530 1530 1530 1530 1530 1531 1531 1532 1531 1531 1532 1532 1533 1534 1534 1535 1535 1535 1534 1534 1534 1534 1534 1535 1535 1535 1535 1535 1535 1535 1535 1534
1526 1526 1526 1527 1527 1527 1527 1527 1528 1528 1529 1529 1530 1530 1531 1532 1533 1533 1533 1533 1533 1533 1533 1533 1533 1534 1534 1534 1534 1534 1534 1534 1534
1522 1522 1522 1522 1523 1523 1524 1524 1524 1525 1525 1526 1526 1527 1528 1529 1530 1530 1531 1530 1531 1531 1532 1532 1532 1532 1532 1533 1533 1533 1533 1533 1533
1517 1517 1517 1517 1518 1518 1519 1520 1521 1522 1522 1522 1523 1524 1525 1527 1527 1527 1526 1527 1528 1529 1530 1530 1530 1531 1531 1531 1531 1531 1532 1532 1532
1510 1510 1511 1512 1513 1513 1514 1515 1516 1518 1519 1518 1519 1519 1522 1524 1524 1524 1523 1524 1525 1525 1526 1527 1528 1528 1528 1529 1529 1529 1530 1530 1530
1505 1505 1505 1505 1506 1507 1508 1509 1510 1511 1513 1515 1516 1517 1519 1520 1520 1519 1518 1520 1521 1522 1523 1524 1525 1525 1526 1526 1526 1527 1527 1527 1528
1500 1498 1499 1498 1499 1499 1501 1502 1504 1505 1507 1509 1511 1513 1513 1514 1515 1515 1514 1516 1517 1518 1519 1521 1521 1522 1523 1523 1524 1524 1524 1524 1525
1494 1493 1492 1492 1493 1493 1494 1495 1496 1498 1501 1503 1505 1506 1508 1509 1510 1510 1510 1511 1513 1514 1515 1517 1518 1519 1519 1520 1521 1522 1522 1522 1522
1486 1486 1487 1487 1486 1487 1488 1488 1490 1491 1493 1495 1497 1499 1501 1503 1504 1505 1506 1507 1508 1509 1510 1512 1513 1515 1515 1516 1517 1518 1518 1519 1519
1479 1478 1479 1480 1480 1480 1481 1482 1483 1483 1485 1487 1489 1491 1493 1495 1496 1497 1500 1502 1502 1504 1505 1507 1508 1510 1511 1512 1513 1513 1514 1514 1515
1471 1471 1471 1473 1473 1473 1474 1474 1476 1476 1477 1479 1480 1482 1484 1485 1486 1489 1491 1495 1497 1499 1500 1502 1503 1505 1506 1507 1507 1508 1509 1509 1509
1464 1464 1464 1466 1467 1468 1467 1468 1468 1468 1469 1471 1473 1474 1476 1479 1478 1480 1484 1487 1491 1494 1495 1497 1498 1499 1500 1501 1502 1502 1502 1503 1503
1458 1458 1458 1459 1460 1461 1462 1462 1463 1463 1462 1451 1462 1466 1467 1468 1467 1469 1473 1480 1484 1489 1491 1492 1493 1494 1495 1495 1496 1496 1496 1496 1496
1454 1453 1453 1453 1454 1456 1457 1457 1458 1458 1461 1461 1455 1459 1458 1453 1461 1466 1471 1475 1478 1483 1485 1487 1488 1489 1488 1489 1490 1490 1489 1489 1488
1452 1450 1449 1449 1450 1451 1452 1453 1454 1454 1456 1459 1456 1452 1458 1454 1462 1466 1470 1471 1474 1479 1481 1483 1483 1484 1484 1483 1482 1483 1483 1482 1481
1450 1447 1446 1446 1447 1448 1448 1448 1450 1450 1452 1453 1455 1454 1454 1458 1462 1466 1468 1468 1471 1475 1477 1478 1479 1478 1478 1477 1477 1475 1475 1474 1472
1448 1445 1444 1444 1443 1443 1444 1445 1446 1447 1448 1450 1448 1454 1457 1460 1464 1468 1471 1467 1470 1472 1474 1475 1474 1473 1474 1470 1467 1468 1466 1466 1465
1447 1444 1443 1442 1440 1441 1442 1443 1444 1444 1446 1447 1450 1451 1452 1459 1460 1464 1468 1469 1472 1469 1470 1471 1472 1468 1465 1464 1462 1461 1459 1460 1460